Location: Arbon
(43.0005°N, 0.7472°E)
Time: 23:54:39
(UTC+00:00)

S-56A Canister/Altair - Pass Details

Date: 08 December 2020
Orbit: 633 x 2499 km, 38.9° (Epoch: 19 January)

Event Time Altitude Azimuth Distance (km) Brightness Sun altitude
Rises 18:22:07 0° 260° (W) 6,117 13.7 -21.2°
Reaches altitude 10° 18:26:20 10° 259° (W) 4,999 12.8 -21.9°
Maximum altitude 18:40:10 73° 179° (S) 1,984 9.5 -24.4°
Enters shadow 18:45:04 37° 105° (ESE) 2,399 9.5 -25.3°
